TimeEST,TemperatureF,Dew PointF,Humidity,Sea Level PressureIn,VisibilityMPH,Wind Direction,Wind SpeedMPH,Gust SpeedMPH,PrecipitationIn,Events,Conditions,WindDirDegrees,DateUTC
12:53 AM,44.1,39.9,85,29.62,10.0,South,21.9,33.4,0.00,Rain,Light Rain,180,2013-02-19 05:53:00
1:45 AM,44.6,39.2,81,29.58,10.0,South,21.9,36.8,0.00,,Overcast,190,2013-02-19 06:45:00
1:53 AM,44.1,39.9,85,29.59,10.0,South,27.6,36.8,0.00,,Overcast,190,2013-02-19 06:53:00
2:53 AM,45.0,37.9,76,29.57,10.0,SSW,25.3,34.5,0.01,Rain,Light Rain,200,2013-02-19 07:53:00
3:53 AM,44.1,39.0,82,29.55,10.0,SSW,18.4,32.2,0.00,,Overcast,210,2013-02-19 08:53:00
4:08 AM,41.0,37.4,87,29.59,6.0,WSW,34.5,44.9,0.01,Rain,Light Rain,250,2013-02-19 09:08:00
4:19 AM,35.6,33.8,93,29.60,6.0,West,27.6,36.8,0.02,Rain,Light Rain,270,2013-02-19 09:19:00
4:25 AM,35.6,32.0,87,29.60,6.0,West,20.7,36.8,0.02,Rain,Light Rain,260,2013-02-19 09:25:00
4:53 AM,34.0,30.9,89,29.63,1.8,WSW,20.7,27.6,0.03,Snow,Light Snow,250,2013-02-19 09:53:00
5:23 AM,33.8,30.2,87,29.63,0.5,WSW,25.3,33.4,0.02,Fog-Snow,Snow,250,2013-02-19 10:23:00
5:29 AM,33.8,30.2,87,29.63,1.0,West,24.2,33.4,0.02,Snow,Light Snow,260,2013-02-19 10:29:00
5:35 AM,33.8,30.2,87,29.63,3.0,West,19.6,29.9,0.02,Snow,Light Snow,260,2013-02-19 10:35:00
5:53 AM,33.1,30.0,89,29.66,8.0,West,20.7,27.6,0.02,,Overcast,260,2013-02-19 10:53:00
6:53 AM,30.0,26.1,85,29.69,6.0,West,24.2,32.2,N/A,,Overcast,270,2013-02-19 11:53:00
7:25 AM,30.2,24.8,80,29.69,10.0,West,28.8,35.7,N/A,,Overcast,260,2013-02-19 12:25:00
7:53 AM,27.0,21.9,81,29.74,10.0,West,23.0,28.8,N/A,,Overcast,260,2013-02-19 12:53:00
8:44 AM,26.6,21.2,80,29.73,6.0,WSW,23.0,31.1,0.00,,Overcast,240,2013-02-19 13:44:00
8:53 AM,27.0,21.0,78,29.76,6.0,West,24.2,35.7,0.00,,Overcast,260,2013-02-19 13:53:00
9:29 AM,26.6,21.2,80,29.74,2.5,West,16.1,27.6,0.00,Snow,Light Snow,260,2013-02-19 14:29:00
9:41 AM,26.6,21.2,80,29.75,3.0,West,20.7,-,0.00,Snow,Light Snow,260,2013-02-19 14:41:00
9:53 AM,27.0,21.0,78,29.77,3.0,West,16.1,27.6,0.00,Snow,Light Snow,260,2013-02-19 14:53:00
10:06 AM,26.6,21.2,80,29.75,1.8,West,23.0,32.2,0.00,Snow,Light Snow,260,2013-02-19 15:06:00
10:16 AM,26.6,21.2,80,29.75,1.8,West,20.7,-,0.00,Snow,Light Snow,270,2013-02-19 15:16:00
10:20 AM,26.6,21.2,80,29.75,2.0,West,24.2,29.9,0.00,Snow,Light Snow,270,2013-02-19 15:20:00
10:33 AM,24.8,19.4,80,29.76,1.5,West,19.6,33.4,0.00,Snow,Light Snow,260,2013-02-19 15:33:00
10:49 AM,26.6,21.2,80,29.76,3.0,WSW,27.6,34.5,0.00,Snow,Light Snow,250,2013-02-19 15:49:00
10:53 AM,26.1,19.0,75,29.79,6.0,WSW,31.1,40.3,0.00,Snow,Light Snow,250,2013-02-19 15:53:00
11:17 AM,26.6,17.6,69,29.77,7.0,WSW,25.3,36.8,0.00,Snow,Light Snow,250,2013-02-19 16:17:00
11:24 AM,24.8,17.6,74,29.77,9.0,WSW,26.5,36.8,0.00,,Overcast,240,2013-02-19 16:24:00
1:34 PM,24.8,17.6,74,29.79,2.5,West,28.8,35.7,0.00,Snow,Light Snow,260,2013-02-19 18:34:00
1:44 PM,24.8,17.6,74,29.80,5.0,West,27.6,35.7,0.00,Snow,Light Snow,260,2013-02-19 18:44:00
1:53 PM,24.1,17.1,75,29.83,5.0,WSW,28.8,39.1,0.00,Snow,Light Snow,250,2013-02-19 18:53:00
2:43 PM,24.8,17.6,74,29.81,2.0,WSW,29.9,39.1,0.00,Snow,Light Snow,250,2013-02-19 19:43:00
2:50 PM,24.8,17.6,74,29.82,1.8,WSW,27.6,38.0,0.00,Snow,Light Snow,250,2013-02-19 19:50:00
2:53 PM,24.1,17.1,75,29.85,2.0,WSW,33.4,39.1,0.00,Snow,Light Snow,250,2013-02-19 19:53:00
3:02 PM,24.8,15.8,69,29.82,3.0,WSW,29.9,40.3,0.00,Snow,Light Snow,250,2013-02-19 20:02:00
3:12 PM,23.0,17.6,80,29.83,1.8,West,29.9,40.3,0.00,Snow,Light Snow,260,2013-02-19 20:12:00
3:22 PM,23.0,15.8,74,29.84,3.0,West,29.9,43.7,0.00,Snow,Light Snow,260,2013-02-19 20:22:00
3:53 PM,21.9,14.0,72,29.89,4.0,West,27.6,39.1,0.00,Snow,Light Snow,260,2013-02-19 20:53:00
4:19 PM,21.2,14.0,74,29.88,2.5,West,19.6,33.4,0.00,Snow,Light Snow,260,2013-02-19 21:19:00
4:33 PM,21.2,14.0,74,29.89,1.8,West,28.8,34.5,0.00,Snow,Light Snow,260,2013-02-19 21:33:00
4:37 PM,21.2,12.2,68,29.89,3.0,West,25.3,34.5,0.00,Snow,Light Snow,260,2013-02-19 21:37:00
4:53 PM,21.0,12.9,71,29.93,6.0,West,25.3,34.5,0.00,Snow,Light Snow,270,2013-02-19 21:53:00
5:06 PM,21.2,14.0,74,29.90,8.0,West,25.3,33.4,0.00,Snow,Light Snow,270,2013-02-19 22:06:00
5:29 PM,21.2,15.8,80,29.91,2.5,West,19.6,-,0.00,Snow,Light Snow,270,2013-02-19 22:29:00
5:38 PM,21.2,15.8,80,29.92,1.2,West,23.0,29.9,0.00,Snow,Light Snow,260,2013-02-19 22:38:00
5:53 PM,21.0,16.0,81,29.96,0.8,West,25.3,29.9,0.00,Snow,Light Snow,260,2013-02-19 22:53:00
6:06 PM,19.4,12.2,74,29.94,2.0,West,29.9,38.0,0.00,Snow,Light Snow,260,2013-02-19 23:06:00
6:15 PM,19.4,12.2,74,29.94,6.0,West,21.9,35.7,0.00,,Overcast,270,2013-02-19 23:15:00
7:53 PM,19.0,10.9,71,30.03,6.0,West,23.0,29.9,0.00,Snow,Light Snow,270,2013-02-20 00:53:00
8:53 PM,18.0,10.9,74,30.04,5.0,West,19.6,28.8,0.00,Snow,Light Snow,270,2013-02-20 01:53:00
9:41 PM,17.6,10.4,73,30.02,2.5,West,24.2,28.8,0.00,Snow,Light Snow,270,2013-02-20 02:41:00
9:48 PM,17.6,10.4,73,30.02,6.0,West,21.9,32.2,0.00,Snow,Light Snow,280,2013-02-20 02:48:00
9:53 PM,18.0,10.0,71,30.06,7.0,West,20.7,29.9,0.00,Snow,Light Snow,280,2013-02-20 02:53:00
10:53 PM,17.1,10.0,74,30.07,4.0,West,18.4,27.6,0.00,Snow,Light Snow,280,2013-02-20 03:53:00
11:53 PM,18.0,10.0,71,30.09,7.0,West,17.3,24.2,0.00,Snow,Light Snow,280,2013-02-20 04:53:00